This is the latest recevied weather packets stored in our database for station/object KN6CW-3. If no packets are shown the sender has not sent any weather packets the latest 10 day(s).
| Time | Temp. | Humidity | Pressure | Rain* | Wind** | Luminosity | Snow |
|---|---|---|---|---|---|---|---|
| 1777724093 | 3.89° C | 95% | 1012.7 hPa | 0 mm | - | 374 W/m² | - |
| 1777723792 | 3.89° C | 95% | 1012.7 hPa | 0 mm | - | 287 W/m² | - |
| 1777723493 | 3.89° C | 96% | 1012.8 hPa | 0 mm | - | 276 W/m² | - |
| 1777723192 | 3.33° C | 96% | 1012.7 hPa | 0 mm | - | 218 W/m² | - |
| 1777722891 | 3.33° C | 96% | 1012.8 hPa | 0 mm | - | 339 W/m² | - |
| 1777722591 | 3.33° C | 96% | 1012.7 hPa | 0 mm | - | 309 W/m² | - |
| 1777722291 | 2.78° C | 96% | 1012.9 hPa | 0 mm | - | 127 W/m² | - |
| 1777721991 | 2.78° C | 96% | 1013 hPa | 0 mm | - | 142 W/m² | - |
| 1777721690 | 2.78° C | 96% | 1013 hPa | 0 mm | - | 172 W/m² | - |
| 1777721390 | 2.78° C | 96% | 1012.8 hPa | 0 mm | - | 139 W/m² | - |
| 1777721090 | 2.78° C | 96% | 1013 hPa | 0 mm | - | 271 W/m² | - |
| 1777720789 | 2.22° C | 96% | 1013 hPa | 0 mm | - | 104 W/m² | - |
| 1777720489 | 2.22° C | 96% | 1012.9 hPa | 0 mm | - | 83 W/m² | - |
| 1777720189 | 2.22° C | 96% | 1012.9 hPa | 0 mm | - | 86 W/m² | - |
| 1777719889 | 2.22° C | 96% | 1012.8 hPa | 0 mm | - | 72 W/m² | - |
| 1777719588 | 2.22° C | 96% | 1012.9 hPa | 0 mm | - | 44 W/m² | - |
| 1777719288 | 1.67° C | 96% | 1012.8 hPa | 0.25 mm | - | 49 W/m² | - |
| 1777718988 | 1.67° C | 96% | 1012.6 hPa | 0.25 mm | - | 46 W/m² | - |
| 1777718687 | 1.67° C | 96% | 1012.7 hPa | 0.25 mm | - | 32 W/m² | - |
| 1777718387 | 1.67° C | 96% | 1012.5 hPa | 0.25 mm | - | 30 W/m² | - |
| 1777718087 | 1.67° C | 96% | 1012.5 hPa | 0.25 mm | - | 25 W/m² | - |
| 1777717787 | 1.67° C | 96% | 1012.5 hPa | 0.25 mm | - | 19 W/m² | - |
| 1777717486 | 2.22° C | 96% | 1012.6 hPa | 0.25 mm | - | 14 W/m² | - |
| 1777717186 | 2.22° C | 96% | 1012.6 hPa | 0.25 mm | - | 11 W/m² | - |
| 1777716887 | 2.22° C | 96% | 1012.5 hPa | 0.51 mm | - | 7 W/m² | - |
* Rain latest hour (hover to see other rain measurements)
** Current wind speed in m/s (hover to see current wind gust speed)